Skip Page Navigation
NASA JPL Caltech
NASA Logo - Jet Propulsion Laboratory + View the NASA Portal
+ Near-Earth Object (NEO) Program
Search JPL
JPL Home Earth Solar System Stars & Galaxies Technology
JPL Solar System Dynamics
BODIES ORBITS EPHEMERIDES TOOLS PHYSICAL DATA DISCOVERY FAQ SITE MAP
JPL Small-Body Database Browser
Search: [ help ]  
10997 Gahm (1978 RX7)
Classification: Main-belt Asteroid          SPK-ID: 2010997
Ephemeris | Orbit Diagram | Orbital Elements | Physical Parameters | Discovery Circumstances ]

[ hide orbit diagram ]
Orbit Diagram
Note: Make sure you have Java enabled on your browser to see the applet. This applet is provided as a 3D orbit visualization tool. The applet was implemented using 2-body methods, and hence should not be used for determining accurate long-term trajectories (over several years or decades) or planetary encounter circumstances. For accurate long-term ephemerides, please instead use our Horizons system.
Orbit Viewer

Additional Notes: the orbits shown in the applet are color coded. The planets are white lines, and the asteroid/comet is a blue line. The bright white line indicates the portion of the orbit that is above the ecliptic plane, and the darker portion is below the ecliptic plane. Likewise for the asteroid/comet orbit, the light blue indicates the portion above the ecliptic plane, and the dark blue the portion below the ecliptic plane.

Orbit Viewer applet originally written and kindly provided by Osamu Ajiki (AstroArts), and further modified by Ron Baalke (JPL).


Orbital Elements at Epoch 2456400.5 (2013-Apr-18.0) TDB
Reference: MPO250321 (heliocentric ecliptic J2000)
 Element Value Uncertainty (1-sigma)   Units 
e 0.2076986 n/a  
a 2.6185630 n/a AU
q 2.0746911 n/a AU
i 5.86314 n/a deg
node 321.32532 n/a deg
peri 283.25632 n/a deg
M 133.21128 n/a deg
tp 2455827.7943368
(2011-Sep-23.29433680)
n/a JED
period 1547.7220755
4.24
n/a
n/a
d
yr
n 0.23259990 n/a deg/d
Q 3.1624349 n/a AU
  Orbit Determination Parameters
   # obs. used (total)      757  
   first obs. used      1978-??-??  
   last obs. used      2013-01-22  
   # oppositions      14  
   planetary ephem.      DE403  
   condition code      0  
   fit RMS      0.59  
   data source      MPC:mpn  
   producer      MPCLINUX  

Additional Information
 T_jup = 3.368 

Ephemeris | Orbit Diagram | Orbital Elements | Physical Parameters | Discovery Circumstances ]

Physical Parameter Table
Parameter Symbol Value Units Sigma Reference Notes
absolute magnitude H 13.7 mag n/a PDS3 (MPC 35211)  

10997 Gahm           Discovered 1978 Sept. 2 by C.-I. Lagerkvist at European Southern Observatory.
Gösta Gahm (b. 1968) is an astronomer at Stockholm Observatory. For many years he has been the project leader of the "Swedish Solar System", a model of the Solar System where 1 AU is equal to 7.6 km and the sun and planets are scaled likewise.
NOTE: some special characters may not display properly (any characters within {} are an attempt to place the proper accent above a character)
Reference: 20030318/MPCPages.arcLast Updated: 2003-10-02

Alternate Designations
 1978 RX7 = 1991 TV3 
Ephemeris | Orbit Diagram | Orbital Elements | Physical Parameters | Discovery Circumstances ]
ABOUT SSD CREDITS/AWARDS PRIVACY/COPYRIGHT GLOSSARY LINKS
FirstGov 2013-May-24 07:27 UT
(server date/time)  
NASA Home Page
Site Manager:   Donald K. Yeomans
Webmaster  Alan B. Chamberlin